COSMOS 1275 DEB, 39946

Orbit data source: Space-Track

COSMOS 1275 DEB, 39946 is space debris in LEO originally from a launch on Thu, 04 Jun 1981 UTC launched from the Plesetsk Missile And Space Complex (PKMTR). Debris objects in space refer to the collection of defunct objects orbiting the Earth. Examples of debris include non-operational satellites, rocket bodies, and fragments generated from explosions, collisions, or faulty payload assembly.

Loading next visibility...
Identifier
39946, 1981-053NG
Orbit
LEO
Country
Flag of CISCIS
Related business
Manufacturer
Unknown
Mission
Spacecraft
Bus & Motor
Unknown
Mass
Unknown
Launch date (UTC)
1981-06-04 (45 years ago)
Launch vehicle
Unknown
Launch site
Plesetsk Missile And Space Complex (PKMTR)
Object type
Payload
Rocket body
Debris
Shape & HBR
Unknown shape, 0.1 m
Radar Cross Section
Small (<0.1 m²)

Expand to show TLE details & history
Last TLE update: 1 week ago

TLE from 1 week ago
0 COSMOS 1275 DEB
1 39946U 81053NG  26030.94704000  .00000310  00000-0  27755-3 0  9996
2 39946  82.9528 278.3825 0033766 277.2206  82.5115 13.81223002907036
Epoch: 2026-01-30T22:43Z
TLE epoch observation values (Epoch: 2026-01-30T22:43:44.256Z)
Latitude
-0.00004°
Longitude
167.27002°
Altitude
959.313 km
Speed
7.374 km/s
True Right ascension
18h 33m 31s
True Declination
0° 00' 00"
Sunlit
Object was in daylight at epoch
Visualization orbit readout
Latitude
Unknown
Longitude
Unknown
Altitude
Unknown
Speed
Unknown
Apparent Right ascension
Unknown
Apparent Declination
Unknown
Sunlit
N/A
Visualization observer readout
Local Sidereal Time
14:18:44
Azimuth
Unknown
Elevation
Unknown
Doppler factor
Unknown
Orbital elements
Apogee altitude
981.459 km
Perigee altitude
931.925 km
Semi-major axis
7,334.829 km
Eccentricity
0.00338
Inclination
82.9528°
RAAN
278.3825°
Arg. of periapsis
277.2206°
True anomaly
82.89534°
Mean anomaly
82.5115°
Eccentric anomaly
82.7034°
Mean motion
3.45508 °/min
Orbital period
104.19 mins
BSTAR
0.00027755
Loading maneuver chart data...
Computing Atmospheric mass density...
Loading historical data...
Loading historical data...
Loading historical data...
Loading historical data...
Loading historical data...
Loading historical data...
Loading historical data...

Documentation

Showing up to 5 results
|